Klawock, AK

12:19 AM AKST on February 24, 2017 (GMT -0900)
Klawock

Weather History for PAKW - April, 2014

Change the Weather History Date:

Friday, April 18, 2014

  Actual Average Record
Temperature  
Mean Temperature 42 °F -  
Max Temperature 50 °F 49 °F 55 °F (2012)
Min Temperature 37 °F 33 °F 28 °F (2002)
Degree Days  
Heating Degree Days 22    
Moisture  
Dew Point 36 °F    
Average Humidity 84    
Maximum Humidity 100    
Minimum Humidity 59    
Precipitation  
Precipitation 0.04 in - - ()
Sea Level Pressure  
Sea Level Pressure 29.77 in    
Wind  
Wind Speed 5 mph (South)    
Max Wind Speed 10 mph    
Max Gust Speed 20 mph    
Visibility 10 miles    
Events Rain    
Averages and records for this station are not official NWS values.
T = Trace of Precipitation, MM = Missing Value Source: NWS Daily Summary

Daily Weather History Graph

Daily Weather History Graph

Search for Another Location

Airport or City:

Trip Planner

Search our weather history database for the weather conditions in past years. The results will help you decide how hot, cold, wet, or windy it might be!

Date:

Astronomy

Apr. 18, 2014 Rise Set
Actual Time 5:39 AM AKDT 8:04 PM AKDT
Civil Twilight 4:59 AM AKDT 8:45 PM AKDT
Nautical Twilight 4:07 AM AKDT 9:37 PM AKDT
Astronomical Twilight 3:04 AM AKDT 10:42 PM AKDT
Moon No Moon Rise 7:44 AM AKDT (4/18)
Length of Visible Light 15h 45m
Length of Day
14h 24m
Waning Gibbous, 86% of the Moon is Illuminated
Apr 18
Waning Gibbous
Apr 21
Last Quarter
Apr 28
New
May 6
First Quarter
May 14
Full

Hourly Weather History & Observations

Time (AKDT) Temp. Windchill Dew Point Humidity Pressure Visibility Wind Dir Wind Speed Gust Speed Precip Events Conditions
12:44 AM 39.0 °F 35.7 °F 37.9 °F 96% 29.73 in 10.0 mi South 4.6 mph - 0.00 in   Overcast
12:53 AM 39.0 °F 34.8 °F 37.9 °F 96% 29.74 in 10.0 mi Variable 5.8 mph - 0.00 in   Overcast
1:27 AM 39.0 °F 34.0 °F 37.0 °F 93% 29.75 in 10.0 mi Variable 6.9 mph - N/A   Scattered Clouds
1:49 AM 37.4 °F 31.4 °F 37.4 °F 100% 29.76 in 10.0 mi SSE 8.1 mph - N/A   Mostly Cloudy
1:53 AM 37.9 °F 34.4 °F 37.0 °F 97% 29.76 in 10.0 mi Variable 4.6 mph - N/A   Mostly Cloudy
2:53 AM 37.9 °F 34.4 °F 37.0 °F 97% 29.78 in 10.0 mi SSW 4.6 mph - 0.01 in Rain Light Rain
3:07 AM 39.0 °F 34.0 °F 36.0 °F 89% 29.77 in 10.0 mi Variable 6.9 mph - 0.00 in   Overcast
3:53 AM 37.9 °F 34.4 °F 36.0 °F 93% 29.79 in 10.0 mi Variable 4.6 mph - 0.00 in   Mostly Cloudy
4:50 AM 37.4 °F 33.8 °F 35.6 °F 93% 29.80 in 10.0 mi SSE 4.6 mph - 0.00 in Rain Light Rain
4:53 AM 37.9 °F 35.5 °F 37.0 °F 97% 29.81 in 10.0 mi Variable 3.5 mph - 0.00 in Rain Light Rain
5:01 AM 37.9 °F 34.4 °F 37.0 °F 97% 29.80 in 10.0 mi South 4.6 mph - 0.00 in   Overcast
5:19 AM 37.9 °F 32.7 °F 37.0 °F 97% 29.81 in 9.0 mi SSE 6.9 mph - 0.00 in Rain Light Rain
5:32 AM 37.9 °F 32.7 °F 37.0 °F 97% 29.81 in 8.0 mi SSE 6.9 mph - 0.00 in Rain Light Rain
5:42 AM 37.9 °F 34.4 °F 36.0 °F 93% 29.82 in 10.0 mi South 4.6 mph - 0.00 in   Overcast
5:53 AM 37.9 °F 34.4 °F 36.0 °F 93% 29.82 in 10.0 mi SSE 4.6 mph - 0.00 in   Overcast
6:32 AM 37.9 °F 33.5 °F 36.0 °F 93% 29.82 in 10.0 mi Variable 5.8 mph - N/A   Overcast
6:53 AM 37.9 °F 34.4 °F 37.0 °F 97% 29.83 in 10.0 mi SSE 4.6 mph - N/A   Overcast
7:53 AM 39.0 °F - 37.0 °F 93% 29.84 in 10.0 mi Calm Calm - 0.02 in   Mostly Cloudy
8:53 AM 42.1 °F 40.2 °F 37.0 °F 82% 29.83 in 10.0 mi Variable 3.5 mph - N/A   Mostly Cloudy
9:53 AM 43.0 °F 38.2 °F 36.0 °F 76% 29.84 in 10.0 mi South 8.1 mph - N/A   Mostly Cloudy
10:53 AM 46.0 °F 44.8 °F 36.0 °F 68% 29.84 in 10.0 mi Variable 3.5 mph - 0.00 in   Mostly Cloudy
11:53 AM 46.9 °F - 34.0 °F 61% 29.83 in 10.0 mi South 8.1 mph - N/A   Overcast
1:53 PM 46.9 °F - 37.0 °F 68% 29.82 in 10.0 mi Variable 5.8 mph - 0.00 in Rain Light Rain
2:53 PM 46.9 °F - 35.1 °F 63% 29.80 in 10.0 mi South 10.4 mph 19.6 mph 0.00 in   Scattered Clouds
3:53 PM 48.9 °F - 35.1 °F 59% 29.78 in 10.0 mi Variable 4.6 mph - N/A   Mostly Cloudy
4:53 PM 48.0 °F - 35.1 °F 61% 29.75 in 10.0 mi Variable 3.5 mph - 0.01 in   Mostly Cloudy
5:53 PM 46.9 °F - 33.1 °F 59% 29.73 in 10.0 mi Variable 5.8 mph - N/A   Scattered Clouds
7:53 PM 43.0 °F - 35.1 °F 74% 29.69 in 10.0 mi Calm Calm - N/A   Mostly Cloudy
8:53 PM 43.0 °F - 36.0 °F 76% 29.68 in 10.0 mi Calm Calm - 0.00 in Rain Light Rain
9:53 PM 43.0 °F - 35.1 °F 74% 29.65 in 10.0 mi Calm Calm - 0.00 in   Overcast
10:53 PM 43.0 °F 41.3 °F 35.1 °F 74% 29.62 in 10.0 mi Variable 3.5 mph - N/A   Mostly Cloudy
11:53 PM 44.1 °F - 35.1 °F 71% 29.59 in 10.0 mi Calm Calm - N/A   Overcast